Location: Helion Bumpstead
(52.0500°N, 0.4000°E)
Time: 08:48:58
(UTC+00:00)

NOSS 0 Rocket - Pass Details

Date: 15 November 2025
Orbit: 934 x 953 km, 70.0° (Epoch: 14 December)

Event Time Altitude Azimuth Distance (km) Brightness Sun altitude
Exits shadow 04:48:19 48° 274° (W) 1,211 4.0 -22.9°
Maximum altitude 04:49:26 54° 310° (NW) 1,127 4.0 -22.7°
Drops below altitude 10° 04:55:29 10° 28° (NNE) 2,665 6.6 -21.8°
Sets 04:58:06 0° 33° (NNE) 3,615 7.4 -21.4°
